Weather History for Shemya, AK

Change the Weather History Date:

Sunday, December 1, 2013

  Actual Average Record
Temperature  
Mean Temperature 39 °F -  
Max Temperature 41 °F 37 °F 44 °F (1967)
Min Temperature 37 °F 31 °F 18 °F (1959)
Degree Days  
Heating Degree Days 26    
Moisture  
Dew Point 34 °F    
Average Humidity 87    
Maximum Humidity 100    
Minimum Humidity 60    
Precipitation  
Precipitation 0.00 in - - ()
Sea Level Pressure  
Sea Level Pressure 29.60 in    
Wind  
Wind Speed 19 mph (WNW)    
Max Wind Speed 37 mph    
Max Gust Speed 48 mph    
Visibility 9 miles    
Events Rain    
Averages and records for this station are not official NWS values.
T = Trace of Precipitation, MM = Missing Value Source: NWS Daily Summary

Daily Weather History Graph

Daily Weather History Graph

Search for Another Location

Airport:

Trip Planner

Search our weather history database for the weather conditions in past years. The results will help you decide how hot, cold, wet, or windy it might be!

Date:

Astronomy

Nov. 30, 2013 Rise Set
Actual Time 10:12 AM HAST 6:12 PM HAST
Civil Twilight 9:31 AM HAST 6:53 PM HAST
Nautical Twilight 8:47 AM HAST 7:36 PM HAST
Astronomical Twilight 8:06 AM HAST 8:17 PM HAST
Moon 8:40 AM HAST (12/1) 5:42 PM HAST (12/1)
Length of Visible Light 9h 21m
Length of Day
8h 00m
Waning Crescent, 2% of the Moon is Illuminated
Dec 1
Waning Crescent
Dec 2
New
Dec 9
First Quarter
Dec 16
Full
Dec 25
Last Quarter

Hourly Weather History & Observations

Time (HAST) Temp. Windchill Dew Point Humidity Pressure Visibility Wind Dir Wind Speed Gust Speed Precip Events Conditions
12:07 AM 39.2 °F 37.0 °F 39.2 °F 100% 29.44 in 2.5 mi NW 3.5 mph - N/A Rain Light Rain
12:16 AM 39.2 °F 34.2 °F 39.2 °F 100% 29.44 in - WNW 6.9 mph - N/A Rain Light Rain
12:18 AM 39.2 °F 34.2 °F 39.2 °F 100% 29.44 in 1.5 mi WNW 6.9 mph - N/A Rain Light Rain
12:20 AM 39.2 °F 34.2 °F 39.2 °F 100% 29.44 in 1.2 mi WNW 6.9 mph - N/A Rain Light Rain
12:24 AM 39.2 °F 31.6 °F 39.2 °F 100% 29.44 in 1.2 mi WNW 12.7 mph - N/A Rain Light Rain
12:29 AM 39.2 °F 30.5 °F 39.2 °F 100% 29.44 in 1.8 mi WNW 16.1 mph - N/A Rain Light Rain
12:37 AM 39.2 °F 29.8 °F 39.2 °F 100% 29.44 in - NW 18.4 mph - N/A Rain Light Rain
12:56 AM 39.0 °F 28.8 °F 39.0 °F 100% 29.44 in 4.0 mi NW 21.9 mph - N/A Rain Light Rain
1:15 AM 39.2 °F 29.6 °F 39.2 °F 100% 29.44 in - NW 19.6 mph - N/A   Overcast
1:56 AM 37.9 °F 26.6 °F 37.0 °F 97% 29.45 in 7.0 mi NW 25.3 mph 29.9 mph N/A Rain Light Rain
2:02 AM 37.4 °F 25.6 °F 37.4 °F 100% 29.45 in 10.0 mi NW 26.5 mph - N/A Rain Light Rain
2:11 AM 37.4 °F 25.9 °F 37.4 °F 100% 29.45 in 10.0 mi NW 25.3 mph - N/A Rain Light Rain
2:18 AM 37.4 °F 26.4 °F 37.4 °F 100% 29.45 in 10.0 mi NW 23.0 mph - N/A   Overcast
2:56 AM 37.0 °F 24.7 °F 36.0 °F 96% 29.46 in 10.0 mi NW 28.8 mph 35.7 mph N/A   Overcast
3:18 AM 37.4 °F 25.2 °F 35.6 °F 93% 29.46 in 10.0 mi NW 28.8 mph 38.0 mph N/A   Overcast
3:56 AM 37.0 °F 24.9 °F 36.0 °F 96% 29.47 in 10.0 mi WNW 27.6 mph 39.1 mph N/A   Overcast
4:23 AM 37.4 °F 25.4 °F 35.6 °F 93% 29.47 in 10.0 mi NW 27.6 mph 38.0 mph N/A   Overcast
4:38 AM 37.4 °F 25.4 °F 35.6 °F 93% 29.47 in 10.0 mi WNW 27.6 mph 36.8 mph N/A Rain Light Rain
4:56 AM 37.0 °F 24.7 °F 36.0 °F 96% 29.48 in 10.0 mi WNW 28.8 mph 35.7 mph N/A Rain Light Rain
5:56 AM 37.0 °F 23.9 °F 36.0 °F 96% 29.49 in 10.0 mi WNW 33.4 mph 40.3 mph N/A   Overcast
6:26 AM 37.4 °F 24.6 °F 35.6 °F 93% 29.50 in 10.0 mi WNW 32.2 mph 41.4 mph N/A   Overcast
6:37 AM 37.4 °F 24.4 °F 35.6 °F 93% 29.50 in 10.0 mi WNW 33.4 mph 41.4 mph N/A   Overcast
6:47 AM 37.4 °F 23.8 °F 35.6 °F 93% 29.50 in 10.0 mi WNW 36.8 mph 48.3 mph N/A   Mostly Cloudy
6:56 AM 37.0 °F 23.5 °F 35.1 °F 93% 29.51 in 10.0 mi WNW 35.7 mph 44.9 mph N/A   Mostly Cloudy
7:56 AM 37.0 °F 24.3 °F 34.0 °F 89% 29.54 in 10.0 mi WNW 31.1 mph 40.3 mph N/A   Partly Cloudy
8:56 AM 37.0 °F 25.4 °F 34.0 °F 89% 29.58 in 10.0 mi WNW 25.3 mph 33.4 mph N/A   Overcast
9:10 AM 37.4 °F 27.8 °F 33.8 °F 87% 29.58 in 10.0 mi WNW 17.3 mph - N/A   Overcast
9:56 AM 37.9 °F 27.3 °F 33.1 °F 83% 29.60 in 10.0 mi West 21.9 mph - N/A   Overcast
10:06 AM 37.4 °F 27.2 °F 33.8 °F 87% 29.61 in 10.0 mi WNW 19.6 mph - N/A   Overcast
10:56 AM 37.0 °F 27.0 °F 33.1 °F 86% 29.64 in 10.0 mi WNW 18.4 mph - N/A   Overcast
11:56 AM 39.0 °F 28.5 °F 32.0 °F 76% 29.67 in 10.0 mi West 23.0 mph - N/A   Overcast
12:56 PM 39.0 °F 27.6 °F 30.9 °F 73% 29.69 in 10.0 mi West 27.6 mph 34.5 mph N/A   Mostly Cloudy
1:56 PM 39.0 °F 27.4 °F 30.9 °F 73% 29.72 in 10.0 mi West 28.8 mph 32.2 mph N/A   Overcast
2:56 PM 39.0 °F 27.4 °F 32.0 °F 76% 29.74 in 10.0 mi West 28.8 mph 34.5 mph N/A   Overcast
3:56 PM 37.9 °F 26.1 °F 28.9 °F 70% 29.76 in 10.0 mi West 27.6 mph 36.8 mph N/A   Partly Cloudy
4:56 PM 37.0 °F 24.5 °F 27.0 °F 67% 29.80 in 10.0 mi West 29.9 mph 38.0 mph N/A   Clear
5:56 PM 37.0 °F 25.4 °F 27.0 °F 67% 29.84 in 10.0 mi West 25.3 mph 39.1 mph N/A   Clear
6:56 PM 37.0 °F 24.7 °F 27.0 °F 67% 29.86 in 10.0 mi West 28.8 mph 38.0 mph N/A   Clear
7:56 PM 37.0 °F 25.6 °F 28.0 °F 70% 29.89 in 10.0 mi West 24.2 mph 28.8 mph N/A   Partly Cloudy
8:56 PM 37.0 °F 25.6 °F 28.0 °F 70% 29.92 in 10.0 mi West 24.2 mph - N/A   Clear
9:56 PM 37.0 °F 26.4 °F 28.9 °F 73% 29.95 in 10.0 mi West 20.7 mph - N/A   Clear
10:56 PM 37.9 °F 28.2 °F 28.0 °F 68% 29.97 in 10.0 mi West 18.4 mph 26.5 mph N/A   Clear
11:56 PM 37.9 °F 29.2 °F 30.9 °F 76% 30.00 in 10.0 mi West 15.0 mph - N/A   Mostly Cloudy